Regional Weather Roundup
Issued by NWS Upton, NY

Home | Current Version | Previous Version | Text Only | Print | Product List | Glossary On
Versions: 1 2 3 4 5 6 7 8 9 10 11 12 13 14 15 16 17 18 19 20 21 22 23 24 25 26 27
000
ASUS41 KOKX 230508
RWROKX

REGIONAL WEATHER ROUNDUP
NATIONAL WEATHER SERVICE NEW YORK NY
1200 AM EST MON JAN 23 2017

NOTE: "FAIR" INDICATES FEW OR NO CLOUDS BELOW 12,000 FEET WITH NO
SIGNIFICANT WEATHER AND/OR OBSTRUCTIONS TO VISIBILITY.

NYZ071-072-176-178-NJZ106-104-230600-
NEW YORK CITY METRO AREA

CITY           SKY/WX    TMP DP  RH WIND       PRES   REMARKS
Central Park   CLOUDY    44  40  85 E13G23    29.84R
Wall St Helipt CLOUDY    45  40  82 NE21G31   29.81R
LaGuardia APRT CLOUDY    45  40  82 NE25G35   29.82R
Kennedy INTL   CLOUDY    47  43  86 NE23      29.81S
Breezy Point     N/A     45 N/A N/A NE12G17     N/A
Newark/Liberty CLOUDY    46  40  79 NE21G31   29.81R
Teterboro      CLOUDY    46  40  79 NE16G23   29.81S
$$

NYZ177-179-078>081-230600-
LONG ISLAND NEW YORK

CITY           SKY/WX    TMP DP  RH WIND       PRES   REMARKS
Jones Beach      N/A     43 N/A N/A NE25G33     N/A
Matinecock PT  NOT AVBL
Farmingdale    CLOUDY    45  40  82 NE13G22   29.81S
MacArthur/ISP  CLOUDY    43  41  93 NE20G31   29.82S
Shirley        CLOUDY    42  41  96 NE9G22    29.84R
Westhampton    CLOUDY    43  40  89 NE16G28   29.84S
Southampton    NOT AVBL
Bridgehampton  NOT AVBL
East Hampton   CLOUDY    41  40  95 NE12G22   29.85S FOG
Montauk          N/A     42  41  96 NE15G25   29.87R
$$

NYZ052-065-067-230600-
HUDSON VALLEY

CITY           SKY/WX    TMP DP  RH WIND       PRES   REMARKS
White Plains   MOCLDY    44  39  82 NE10G18   29.83R
Newburgh       CLOUDY    41  39  93 E16       29.86R
Montgomery     CLOUDY    43  37  79 NE10      29.84R
Poughkeepsie   CLOUDY    41  35  79 E9        29.87R
Albany         CLOUDY    37  34  89 CALM      29.91R
$$

NJZ001-105-106-008-010-013-015-019>022-104-230600-
NEW JERSEY

CITY           SKY/WX    TMP DP  RH WIND       PRES   REMARKS
Newark/Liberty CLOUDY    46  40  79 NE21G31   29.81R
Teterboro      CLOUDY    46  40  79 NE16G23   29.81S
Caldwell       CLOUDY    45  40  82 E14G25    29.82S
Somerville     CLOUDY    46  40  79 E12G25    29.78R
Linden         CLOUDY    46  39  78 E21G26    29.80S
Sussex         CLOUDY    45  42  89 NE12      29.81R
Andover          N/A     44  40  85 VRB5      29.79S
Trenton        CLOUDY    45  42  89 E16G26    29.76R
Millville      CLOUDY    48  47  96 E16G26    29.68S FOG
Atlantic City  CLOUDY    47  44  90 NE21G32   29.70S FOG
Wrightstown    CLOUDY    44  43  94 NE18G31   29.72F
Toms River     CLOUDY    45  43  93 NE18G28   29.75S
Belmar         CLOUDY    43  42  97 NE21G38   29.78R
$$

PAZ047>061-062-071-230600-
EASTERN PENNSYLVANIA

CITY           SKY/WX    TMP DP  RH WIND       PRES   REMARKS
Philadelphia   LGT RAIN  46  43  89 NE15G25   29.74R
Allentown      CLOUDY    47  40  76 E18G25    29.77R
Scranton       CLOUDY    48  44  86 E8        29.73R
$$

CTZ002-004>006-009-010-012-RIZ004-006-007-MAZ004-011-015-230600-
SOUTHERN NEW ENGLAND
 IN CT

CITY           SKY/WX    TMP DP  RH WIND       PRES   REMARKS
Bradley INTL   DRIZZLE   38  37  97 N10       29.92S WCI  31
Hartford       CLOUDY    42  36  79 NE9       29.91R
Danbury        CLOUDY    41  37  86 NE12      29.86S
Wtrbury/Oxford CLOUDY    39  36  87 E10G20    29.86S WCI  32
Bridgeport     CLOUDY    45  38  76 NE20      29.86R
Meriden        CLOUDY    44  37  76 NE8G18    29.89R
New Haven      CLOUDY    44  38  79 NE13      29.86R
Chester        CLOUDY    41  39  93 E10G22    29.86S
Groton         CLOUDY    42  39  89 NE20G25   29.88R
Wilimantic     CLOUDY    42  38  85 NE12G22   29.91S

 IN RI

CITY           SKY/WX    TMP DP  RH WIND       PRES   REMARKS
Providence     LGT RAIN  41  37  86 NE13      29.92R
Block Island   NOT AVBL
Westerly       CLOUDY    42  38  85 NE14      29.89R
 IN MA

CITY           SKY/WX    TMP DP  RH WIND       PRES   REMARKS
Boston         CLOUDY    40  35  83 NE20      29.97F WCI  30
Worcester      CLOUDY    34  32  92 NE16G24   29.91S WCI  24
Westfield      CLOUDY    37  36  96 N8        29.93S WCI  31
Provincetown   CLOUDY    41  34  76 E18G28    29.94F
Nantucket      CLOUDY    42  36  79 E18G35    29.87S
$$

ANZ330-335-338-340-345-350-353-355-230600-
COASTAL MARINE OBSERVATIONS


STATION/POSITION TIME  SKY/WX   TEMP    WIND        PRES    VSBY  WAVE
                                AIR SEA DIR/SP/G                  HT/PER
                 (UTC)          (F)     (DEG/KT/KT) (MB)    (MI)  (FT/S)
NY HARB ENTRANCE 0350            44 43   60/ 27/ 37 1007.3          8/ 7
20 S FIRE ISLAND 0450            47 45   60/ 25/ 31 1007.3         10/ 7
GREAT SOUTH BAY  NOT AVBL
23 SSW MONTAUK P 0350            45 47   60/ 27/ 33 1008.8          9/ 6
15 E BARNEGAT LI 0430               47                N/A          10/ 7
HUDSON CANYON    0350            51 52              1005.5         11/ 6
KINGS POINT      0436            44 39              1009.6
EXECUTION ROCKS  0445            42      60/ 17/ 23   N/A
CENTRAL LI SOUND 0430            43      60/ 16/ 19   N/A           2/ 4
EASTERN LI SOUND NOT AVBL
ROBBINS REEF     0448            45      60/ 23/ 28 1008.8
$$


>>>>>>>>>>>>>>>>>>>>>>>>>>>> KEY <<<<<<<<<<<<<<<<<<<<<<<<<<<
>                                                          <
>     SKY/WX - Sky Condition/Present Weather               <
>     TMP    - Temperature in Fahrenheit                   <
>     DP     - Dew Point in Fahrenheit                     <
>     RH     - Relative Humidity in Percent                <
>     WIND   - Direction (from) and Speed in MPH           <
>     PRES   - Mean Sea Level Pressure (inches of Hg)      <
>     WCI    - Wind Chill Index                            <
>     VSB    - VISIBILITY IN MILES                         <
>     HX     - HEAT INDEX                                  <
>     TC     - TEMPERATURE IN CELSIUS                      <
>     VRB    - VARIABLE WIND DIRECTION                     <
>                                                          <
>>>>>>>>>>>>>>>>>>>>>>>>>>>> KEY <<<<<<<<<<<<<<<<<<<<<<<<<<<




USA.gov is the U.S. government's official web portal to all federal, state and local government web resources and services.